Flag for U.S.A. Weather past 2 weeks in Montgomery, Alabama, U.S.A.

Now
63 °F

Clear.


Feels Like: 63 °F
Forecast: 57 / 80 °F
Wind: 6 mph from North

Location: Maxwell Air Force Base / Montgomery

Current Time: Sep 23, 2014 at 1:23:40 AM

Latest Report: Sep 23, 2014 at 12:58 AM


Visibility: 10 mi

Pressure: 30.09 "Hg

Humidity: 75%

Dew point: 55 °F

Location of MontgomeryLocation

Historic Weather in Montgomery — Graph

°F

Montgomery temperature yesterday

Maximum temperature yesterday: 84 °F (at 3:58 PM)
Minimum temperature yesterday: 64 °F (at 11:58 PM)
Average temperature yesterday: 72 °F

Past Weeks' High & Low Weather Summary

 TemperatureHumidityPressure
High94 °F (Sep 12, 3:58 PM)100% (Sep 8, 1:58 AM)30.17 "Hg (Sep 8, 1:58 AM)
Low64 °F (Sep 22, 11:58 PM)30% (Sep 18, 2:58 PM)29.88 "Hg (Sep 17, 3:58 PM)
Average78 °F78%30.03 "Hg
* Reported Sep 7 11:58 PM — Sep 22 11:58 PM, Montgomery, Weather by CustomWeather, © 2014

Note: Actual official high and low records may vary slightly from our data, if they occured in-between our weather recording intervals... More about our weather records

Advertising

Montgomery weather history for previous 24 hours

 ConditionsComfort  
Time TempWeatherWind HumidityBarometerVisibility
11:58 PM
Sep 22
64 °FClear.8 mph73%30.09 "Hg10 mi
10:58 PM65 °FClear.3 mph70%30.09 "Hg10 mi
9:58 PM67 °FClear.5 mph66%30.09 "Hg10 mi
8:58 PM70 °FClear.7 mph59%30.09 "Hg10 mi
7:58 PM72 °FClear.8 mph56%30.05 "Hg10 mi
6:58 PM73 °FSunny.5 mph54%30.03 "Hg10 mi
5:58 PM80 °FSunny.7 mph41%30.02 "Hg10 mi
4:58 PM82 °FSunny.12 mph36%30.02 "Hg10 mi
3:58 PM84 °FSunny.10 mph33%30.02 "Hg10 mi
2:58 PM84 °FSunny.12 mph30%30.02 "Hg10 mi
1:58 PM82 °FSunny.5 mph50%30.04 "Hg10 mi
12:58 PM78 °FSunny.5 mph59%30.07 "Hg10 mi
11:58 AM72 °FPassing clouds.6 mph80%30.09 "Hg10 mi
10:58 AM67 °FPartly sunny.5 mph95%30.09 "Hg10 mi
9:58 AM66 °FLight rain. Partly sunny.6 mph94%30.09 "Hg8 mi
8:58 AM67 °FLight rain. Cloudy.8 mph96%30.06 "Hg10 mi
8:03 AM72 °FThunderstorms. Cloudy.10 mph88%30.06 "Hg10 mi
7:58 AM72 °FThunderstorms. Broken clouds.9 mph87%30.05 "Hg10 mi
6:58 AM70 °FPassing clouds.No wind91%30.02 "Hg10 mi
5:58 AM69 °FPassing clouds.1 mph88%30.00 "Hg10 mi
4:58 AM68 °FPassing clouds.1 mph95%30.00 "Hg10 mi
3:58 AM69 °FClear.7 mph89%29.99 "Hg10 mi
2:58 AM67 °FClear.3 mph91%29.97 "Hg10 mi
1:58 AM68 °FClear.2 mph90%29.98 "Hg10 mi
Weather by CustomWeather, © 2014

See weather overviewHow to use our weather pages